| time (UTC) | temp F | wind direction | speed MPH | gust MPH | rain 1hr in | rain 24hr in | rain mn in | humidity % | barometer mb |
| 20260905143516 | 59 | 270 | 1.0 | 2.0 | 0.00 | 0.13 | 0.10 | 80 | 1001.0 |
| 20260905142517 | 58 | 0.0 | 2.0 | 0.00 | 0.13 | 0.10 | 80 | 1000.9 | |
| 20260905141517 | 58 | 248 | 2.0 | 4.0 | 0.00 | 0.13 | 0.10 | 79 | 1000.8 |
| 20260905140517 | 58 | 270 | 2.0 | 5.0 | 0.01 | 0.13 | 0.10 | 80 | 1000.8 |
| 20260905135517 | 58 | 270 | 1.0 | 3.0 | 0.02 | 0.13 | 0.10 | 78 | 1000.8 |
| 20260905134516 | 57 | 203 | 1.0 | 3.0 | 0.04 | 0.13 | 0.10 | 82 | 1000.7 |
| 20260905133516 | 57 | 203 | 1.0 | 3.0 | 0.07 | 0.13 | 0.10 | 85 | 1000.6 |
| 20260905132517 | 57 | 203 | 2.0 | 4.0 | 0.09 | 0.13 | 0.10 | 86 | 1000.5 |
| 20260905131536 | 56 | 248 | 3.0 | 6.0 | 0.09 | 0.13 | 0.10 | 84 | 1000.4 |
| 20260905130536 | 56 | 180 | 4.0 | 6.0 | 0.08 | 0.12 | 0.09 | 83 | 1000.2 |
| 20260905125536 | 57 | 248 | 1.0 | 3.0 | 0.06 | 0.10 | 0.08 | 83 | 1000.3 |
| 20260905124516 | 58 | 315 | 1.0 | 3.0 | 0.05 | 0.09 | 0.06 | 79 | 1000.4 |
| 20260905123517 | 60 | 315 | 6.0 | 11.0 | 0.02 | 0.06 | 0.03 | 70 | 1000.2 |
| 20260905122516 | 61 | 270 | 2.0 | 3.0 | 0.00 | 0.04 | 0.02 | 57 | 1000.0 |
| 20260905121516 | 62 | 315 | 1.0 | 2.0 | 0.00 | 0.04 | 0.02 | 57 | 999.8 |
| 20260905120516 | 62 | 315 | 2.0 | 4.0 | 0.00 | 0.04 | 0.02 | 60 | 999.7 |
| 20260905115516 | 62 | 0 | 3.0 | 6.0 | 0.00 | 0.04 | 0.02 | 60 | 999.6 |
| 20260905114516 | 63 | 270 | 3.0 | 6.0 | 0.00 | 0.04 | 0.02 | 58 | 999.6 |
| 20260905113517 | 65 | 248 | 4.0 | 8.0 | 0.00 | 0.04 | 0.02 | 57 | 999.7 |
| 20260905112517 | 63 | 203 | 3.0 | 7.0 | 0.00 | 0.04 | 0.02 | 64 | 999.5 |
| 20260905111517 | 61 | 270 | 2.0 | 6.0 | 0.00 | 0.04 | 0.02 | 64 | 999.6 |
| 20260905110516 | 62 | 315 | 3.0 | 5.0 | 0.00 | 0.04 | 0.02 | 60 | 999.4 |
| 20260905105516 | 62 | 338 | 1.0 | 5.0 | 0.00 | 0.04 | 0.02 | 61 | 999.3 |
| 20260905104517 | 62 | 45 | 2.0 | 7.0 | 0.00 | 0.04 | 0.02 | 59 | 999.2 |
| 20260905103516 | 62 | 180 | 2.0 | 4.0 | 0.00 | 0.04 | 0.02 | 65 | 999.1 |
| 20260905102516 | 61 | 225 | 3.0 | 6.0 | 0.00 | 0.04 | 0.02 | 61 | 999.0 |
| 20260905101516 | 61 | 248 | 3.0 | 8.0 | 0.00 | 0.04 | 0.02 | 64 | 999.0 |
| 20260905100536 | 60 | 248 | 3.0 | 5.0 | 0.00 | 0.04 | 0.02 | 63 | 998.9 |
| 20260905095516 | 60 | 248 | 3.0 | 7.0 | 0.00 | 0.04 | 0.02 | 64 | 998.8 |
| 20260905094536 | 59 | 315 | 3.0 | 5.0 | 0.00 | 0.04 | 0.02 | 65 | 998.8 |
| 20260905093516 | 59 | 315 | 4.0 | 7.0 | 0.00 | 0.04 | 0.02 | 64 | 998.9 |
| 20260905092516 | 59 | 293 | 4.0 | 9.0 | 0.00 | 0.04 | 0.02 | 64 | 998.8 |
| 20260905091516 | 59 | 293 | 3.0 | 5.0 | 0.00 | 0.04 | 0.02 | 73 | 998.8 |
| 20260905090516 | 58 | 270 | 3.0 | 5.0 | 0.00 | 0.04 | 0.02 | 75 | 998.7 |
| 20260905085516 | 58 | 338 | 2.0 | 5.0 | 0.00 | 0.04 | 0.02 | 76 | 998.6 |
| 20260905084516 | 58 | 0 | 3.0 | 6.0 | 0.00 | 0.04 | 0.02 | 78 | 998.5 |
| 20260905083517 | 57 | 315 | 1.0 | 4.0 | 0.00 | 0.04 | 0.02 | 81 | 998.5 |
| 20260905082516 | 56 | 270 | 1.0 | 2.0 | 0.00 | 0.04 | 0.02 | 82 | 998.4 |
| 20260905081516 | 55 | 270 | 3.0 | 5.0 | 0.00 | 0.04 | 0.02 | 83 | 998.4 |
| 20260905080536 | 54 | 270 | 2.0 | 4.0 | 0.00 | 0.04 | 0.02 | 86 | 998.3 |
| 20260905075516 | 54 | 270 | 2.0 | 5.0 | 0.00 | 0.04 | 0.02 | 90 | 998.3 |
| 20260905074516 | 53 | 270 | 2.0 | 4.0 | 0.00 | 0.04 | 0.02 | 90 | 998.2 |
| 20260905073537 | 52 | 270 | 2.0 | 4.0 | 0.00 | 0.04 | 0.02 | 93 | 998.1 |
| 20260905072516 | 52 | 270 | 2.0 | 5.0 | 0.00 | 0.04 | 0.02 | 93 | 997.9 |
| 20260905071517 | 51 | 293 | 2.0 | 4.0 | 0.00 | 0.04 | 0.02 | 94 | 997.9 |
| 20260905070517 | 51 | 315 | 2.0 | 4.0 | 0.00 | 0.04 | 0.02 | 94 | 997.9 |
| 20260905065516 | 51 | 293 | 2.0 | 5.0 | 0.00 | 0.04 | 0.02 | 95 | 997.8 |
| 20260905064516 | 51 | 315 | 2.0 | 6.0 | 0.00 | 0.04 | 0.02 | 95 | 997.8 |
| 20260905063516 | 50 | 315 | 3.0 | 5.0 | 0.00 | 0.04 | 0.02 | 95 | 997.6 |
| 20260905062516 | 50 | 315 | 2.0 | 3.0 | 0.00 | 0.04 | 0.02 | 95 | 997.6 |
| 20260905061516 | 50 | 293 | 3.0 | 6.0 | 0.00 | 0.04 | 0.02 | 95 | 997.5 |
| 20260905060516 | 50 | 293 | 2.0 | 5.0 | 0.00 | 0.04 | 0.02 | 96 | 997.5 |
| 20260905055516 | 50 | 293 | 1.0 | 3.0 | 0.00 | 0.04 | 0.02 | 96 | 997.3 |
| 20260905054516 | 50 | 270 | 1.0 | 3.0 | 0.00 | 0.04 | 0.02 | 96 | 997.2 |
| 20260905053536 | 49 | 270 | 2.0 | 4.0 | 0.00 | 0.04 | 0.02 | 96 | 997.2 |
| 20260905052516 | 49 | 293 | 1.0 | 3.0 | 0.00 | 0.04 | 0.02 | 96 | 997.1 |
| 20260905051516 | 49 | 293 | 1.0 | 3.0 | 0.00 | 0.04 | 0.02 | 96 | 997.1 |
| 20260905050516 | 49 | 315 | 1.0 | 4.0 | 0.00 | 0.04 | 0.02 | 96 | 997.2 |
| 20260905045537 | 49 | 315 | 2.0 | 4.0 | 0.00 | 0.04 | 0.02 | 95 | 997.0 |
| 20260905044516 | 49 | 315 | 2.0 | 4.0 | 0.00 | 0.04 | 0.02 | 95 | 997.0 |
| 20260905043516 | 49 | 293 | 2.0 | 4.0 | 0.00 | 0.04 | 0.02 | 95 | 997.0 |
| 20260905042536 | 49 | 315 | 2.0 | 3.0 | 0.00 | 0.04 | 0.02 | 95 | 996.9 |
| 20260905041516 | 49 | 315 | 1.0 | 2.0 | 0.00 | 0.04 | 0.02 | 95 | 996.9 |
| 20260905040516 | 49 | 293 | 1.0 | 2.0 | 0.00 | 0.04 | 0.02 | 95 | 996.8 |
| 20260905035536 | 49 | 315 | 1.0 | 3.0 | 0.00 | 0.04 | 0.02 | 95 | 996.8 |
| 20260905034516 | 49 | 293 | 1.0 | 2.0 | 0.00 | 0.04 | 0.02 | 95 | 996.7 |
| 20260905033516 | 49 | 293 | 1.0 | 2.0 | 0.00 | 0.04 | 0.02 | 95 | 996.7 |
| 20260905032516 | 50 | 315 | 1.0 | 2.0 | 0.00 | 0.04 | 0.02 | 95 | 996.7 |
| 20260905031516 | 50 | 315 | 1.0 | 2.0 | 0.00 | 0.04 | 0.02 | 95 | 996.6 |
| 20260905030516 | 50 | 293 | 2.0 | 3.0 | 0.00 | 0.04 | 0.02 | 95 | 996.6 |
| 20260905025516 | 50 | 293 | 2.0 | 4.0 | 0.00 | 0.04 | 0.02 | 95 | 996.6 |
| 20260905024536 | 50 | 0.0 | 2.0 | 0.00 | 0.04 | 0.02 | 95 | 996.5 | |
| 20260905023516 | 50 | 270 | 1.0 | 2.0 | 0.00 | 0.04 | 0.02 | 95 | 996.4 |
| 20260905022516 | 50 | 270 | 1.0 | 2.0 | 0.00 | 0.04 | 0.02 | 95 | 996.3 |
| 20260905021516 | 50 | 270 | 1.0 | 2.0 | 0.00 | 0.04 | 0.02 | 95 | 996.2 |
| 20260905020516 | 50 | 0.0 | 1.0 | 0.00 | 0.04 | 0.02 | 95 | 996.2 | |
| 20260905015516 | 50 | 0.0 | 1.0 | 0.00 | 0.04 | 0.02 | 95 | 996.1 | |
| 20260905014516 | 50 | 0.0 | 2.0 | 0.00 | 0.04 | 0.02 | 95 | 996.1 | |
| 20260905013516 | 50 | 293 | 1.0 | 2.0 | 0.01 | 0.04 | 0.02 | 94 | 996.1 |
| 20260905012516 | 50 | 0.0 | 1.0 | 0.01 | 0.04 | 0.02 | 94 | 996.0 | |
| 20260905011516 | 50 | 0.0 | 1.0 | 0.01 | 0.04 | 0.02 | 95 | 995.9 | |
| 20260905010516 | 50 | 0.0 | 0.0 | 0.01 | 0.04 | 0.02 | 94 | 995.9 | |
| 20260905005516 | 51 | 0.0 | 1.0 | 0.01 | 0.04 | 0.02 | 95 | 995.8 | |
| 20260905004516 | 51 | 0.0 | 0.0 | 0.01 | 0.04 | 0.02 | 94 | 995.8 | |
| 20260905003516 | 51 | 0.0 | 0.0 | 0.00 | 0.03 | 0.01 | 94 | 995.8 | |
| 20260905002536 | 51 | 0.0 | 0.0 | 0.00 | 0.03 | 0.01 | 94 | 995.8 | |
| 20260905001516 | 51 | 0.0 | 1.0 | 0.00 | 0.03 | 0.01 | 94 | 995.8 | |
| 20260905000516 | 51 | 293 | 1.0 | 1.0 | 0.00 | 0.03 | 0.01 | 94 | 995.8 |
| 20260904235516 | 51 | 293 | 1.0 | 2.0 | 0.00 | 0.03 | 0.01 | 94 | 995.8 |
| 20260904234516 | 51 | 293 | 1.0 | 2.0 | 0.01 | 0.03 | 0.01 | 94 | 995.8 |
| 20260904233536 | 51 | 293 | 1.0 | 2.0 | 0.01 | 0.03 | 0.01 | 94 | 995.8 |
| 20260904232516 | 51 | 293 | 1.0 | 2.0 | 0.01 | 0.03 | 0.01 | 94 | 995.8 |
| 20260904231516 | 51 | 293 | 1.0 | 2.0 | 0.01 | 0.03 | 0.01 | 94 | 995.8 |
| 20260904230516 | 51 | 293 | 1.0 | 2.0 | 0.01 | 0.03 | 0.01 | 94 | 995.8 |
| 20260904225536 | 51 | 0.0 | 1.0 | 0.01 | 0.03 | 0.01 | 93 | 995.8 | |
| 20260904224516 | 51 | 0.0 | 1.0 | 0.00 | 0.02 | 0.00 | 93 | 995.8 | |
| 20260904223516 | 51 | 293 | 1.0 | 2.0 | 0.00 | 0.02 | 0.00 | 93 | 995.7 |
| 20260904222536 | 51 | 293 | 1.0 | 2.0 | 0.00 | 0.02 | 0.00 | 93 | 995.7 |
| 20260904221516 | 51 | 293 | 1.0 | 2.0 | 0.00 | 0.02 | 0.00 | 93 | 995.8 |
| 20260904220516 | 52 | 293 | 1.0 | 2.0 | 0.00 | 0.02 | 0.00 | 93 | 995.7 |
| 20260904215518 | 52 | 293 | 1.0 | 2.0 | 0.00 | 0.02 | 0.02 | 93 | 995.8 |
| 20260904214517 | 52 | 293 | 1.0 | 2.0 | 0.00 | 0.02 | 0.02 | 93 | 995.8 |
| 20260904213517 | 52 | 293 | 2.0 | 3.0 | 0.00 | 0.02 | 0.02 | 93 | 995.8 |
| 20260904212517 | 52 | 293 | 1.0 | 3.0 | 0.00 | 0.02 | 0.02 | 92 | 995.8 |
| 20260904211517 | 52 | 293 | 1.0 | 2.0 | 0.00 | 0.02 | 0.02 | 92 | 995.8 |
| 20260904210517 | 52 | 293 | 2.0 | 3.0 | 0.00 | 0.02 | 0.02 | 92 | 995.8 |
| 20260904205517 | 52 | 293 | 2.0 | 3.0 | 0.01 | 0.02 | 0.02 | 92 | 995.8 |
| 20260904204517 | 52 | 293 | 1.0 | 3.0 | 0.01 | 0.02 | 0.02 | 92 | 995.8 |
| 20260904203517 | 52 | 293 | 2.0 | 3.0 | 0.01 | 0.02 | 0.02 | 92 | 995.8 |
| 20260904202517 | 52 | 270 | 1.0 | 2.0 | 0.01 | 0.02 | 0.02 | 92 | 995.8 |
| 20260904201517 | 53 | 270 | 2.0 | 4.0 | 0.01 | 0.02 | 0.02 | 92 | 995.8 |
| 20260904200517 | 53 | 293 | 1.0 | 2.0 | 0.01 | 0.02 | 0.02 | 92 | 995.8 |
| 20260904195517 | 53 | 0.0 | 1.0 | 0.00 | 0.02 | 0.02 | 92 | 995.9 | |
| 20260904194517 | 53 | 293 | 1.0 | 2.0 | 0.00 | 0.02 | 0.02 | 92 | 995.8 |
| 20260904193517 | 53 | 225 | 1.0 | 2.0 | 0.00 | 0.02 | 0.02 | 92 | 995.7 |
| 20260904192517 | 53 | 0.0 | 2.0 | 0.00 | 0.02 | 0.02 | 91 | 995.7 | |
| 20260904191517 | 53 | 225 | 1.0 | 2.0 | 0.00 | 0.02 | 0.02 | 91 | 995.7 |
| 20260904190517 | 53 | 225 | 1.0 | 3.0 | 0.00 | 0.02 | 0.02 | 90 | 995.7 |
| 20260904185517 | 53 | 180 | 1.0 | 2.0 | 0.00 | 0.02 | 0.02 | 90 | 995.7 |
| 20260904184517 | 53 | 180 | 2.0 | 4.0 | 0.00 | 0.02 | 0.02 | 90 | 995.7 |
| 20260904183517 | 53 | 0.0 | 2.0 | 0.01 | 0.02 | 0.02 | 89 | 995.7 | |
| 20260904182537 | 53 | 0.0 | 1.0 | 0.01 | 0.02 | 0.02 | 88 | 995.7 | |
| 20260904181517 | 54 | 158 | 1.0 | 3.0 | 0.01 | 0.02 | 0.02 | 88 | 995.7 |
| 20260904180537 | 54 | 203 | 1.0 | 2.0 | 0.02 | 0.02 | 0.02 | 87 | 995.6 |
| 20260904175517 | 54 | 158 | 1.0 | 3.0 | 0.02 | 0.02 | 0.02 | 86 | 995.5 |
| 20260904174537 | 55 | 180 | 1.0 | 4.0 | 0.02 | 0.02 | 0.02 | 85 | 995.6 |
| 20260904173537 | 55 | 0.0 | 2.0 | 0.01 | 0.01 | 0.01 | 84 | 995.6 | |
| 20260904172517 | 56 | 203 | 1.0 | 3.0 | 0.01 | 0.01 | 0.01 | 82 | 995.6 |
| 20260904171517 | 56 | 225 | 3.0 | 8.0 | 0.01 | 0.01 | 0.01 | 80 | 995.5 |
| 20260904170517 | 57 | 225 | 3.0 | 8.0 | 0.00 | 0.00 | 0.00 | 77 | 995.6 |
| 20260904165537 | 58 | 203 | 5.0 | 8.0 | 0.00 | 0.00 | 0.00 | 71 | 995.5 |
| 20260904164517 | 59 | 203 | 6.0 | 12.0 | 0.00 | 0.00 | 0.00 | 70 | 995.6 |
| 20260904163537 | 60 | 180 | 5.0 | 10.0 | 0.00 | 0.00 | 0.00 | 66 | 995.5 |
| 20260904162517 | 61 | 23 | 2.0 | 4.0 | 0.00 | 0.00 | 0.00 | 64 | 995.4 |
| 20260904161517 | 61 | 23 | 2.0 | 5.0 | 0.00 | 0.00 | 0.00 | 62 | 995.5 |
| 20260904160517 | 61 | 23 | 2.0 | 4.0 | 0.00 | 0.00 | 0.00 | 64 | 995.5 |
| 20260904155517 | 61 | 23 | 2.0 | 3.0 | 0.00 | 0.00 | 0.00 | 62 | 995.5 |
| 20260904154517 | 61 | 23 | 2.0 | 5.0 | 0.00 | 0.00 | 0.00 | 60 | 995.6 |
| 20260904153517 | 61 | 23 | 2.0 | 4.0 | 0.00 | 0.00 | 0.00 | 59 | 995.7 |
| 20260904152537 | 62 | 23 | 2.0 | 4.0 | 0.00 | 0.00 | 0.00 | 59 | 995.8 |
| 20260904151517 | 62 | 23 | 2.0 | 3.0 | 0.00 | 0.00 | 0.00 | 59 | 995.9 |
| 20260904150517 | 62 | 23 | 2.0 | 5.0 | 0.00 | 0.00 | 0.00 | 57 | 995.9 |
| 20260904145517 | 62 | 45 | 2.0 | 4.0 | 0.00 | 0.00 | 0.00 | 58 | 995.9 |
| 20260904144517 | 62 | 23 | 2.0 | 3.0 | 0.00 | 0.00 | 0.00 | 59 | 996.0 |